AEHF-1 (USA 214)

Last updated on Tue Sep 22 2026 00:03:11 GMT+0000 (Coordinated Universal Time)

1 36868U 10039A 26264.13858913 .00000148 00000+0 00000+0 0 9993 2 36868 8.4594 66.7841 0003915 116.6909 256.4663 1.00267846 54628
UTC large
Height (km)
Speed (km/s)
/
Latitude / Longitude
Inclination (degrees)
Orbital Period (minutes)
Azimuth
Elevation
Range (km)
Doppler Factor

Next 0 passes for location: London (51.5072 / 0.1276)

No passes found over London.
AEHF-1 (USA 214)